Oskaloosa, IA

5:35 AM CDT on May 26, 2017 (GMT -0500)
Oskaloosa Municipal

Weather History for KOOA - February, 2014

Change the Weather History Date:

Friday, February 21, 2014

  Actual Average (KOTM) Record (KOTM)
Temperature  
Mean Temperature 30 °F -  
Max Temperature 38 °F 41 °F 70 °F (2017)
Min Temperature 23 °F 23 °F -7 °F (1963)
Degree Days  
Heating Degree Days 34    
Moisture  
Dew Point 23 °F    
Average Humidity 74    
Maximum Humidity 92    
Minimum Humidity 58    
Precipitation  
Precipitation 0.00 in - - ()
Sea Level Pressure  
Sea Level Pressure 29.76 in    
Wind  
Wind Speed 21 mph (West)    
Max Wind Speed 31 mph    
Max Gust Speed 38 mph    
Visibility 10 miles    
Events Snow    
Averages and records for this station are not official NWS values.
T = Trace of Precipitation, MM = Missing Value Source: NWS Daily Summary

Daily Weather History Graph

Daily Weather History Graph

Search for Another Location

Airport or City:

Trip Planner

Search our weather history database for the weather conditions in past years. The results will help you decide how hot, cold, wet, or windy it might be!

Date:

Astronomy

Feb. 21, 2014 Rise Set
Actual Time 6:56 AM CST 5:51 PM CST
Civil Twilight 6:28 AM CST 6:19 PM CST
Nautical Twilight 5:56 AM CST 6:51 PM CST
Astronomical Twilight 5:24 AM CST 7:23 PM CST
Moon No Moon Rise 10:16 AM CST (2/21)
Length of Visible Light 11h 51m
Length of Day
10h 55m
Waning Gibbous, 60% of the Moon is Illuminated
Feb 21
Waning Gibbous
Feb 22
Last Quarter
Mar 1
New
Mar 8
First Quarter
Mar 16
Full

Hourly Weather History & Observations

Time (CST) Temp. Windchill Dew Point Humidity Pressure Visibility Wind Dir Wind Speed Gust Speed Precip Events Conditions
12:15 AM 28.9 °F 13.2 °F 26.2 °F 90% 29.57 in 2.0 mi WNW 31.1 mph 36.8 mph N/A Snow Light Snow
12:35 AM 28.6 °F 13.2 °F 26.4 °F 92% 29.57 in 1.8 mi West 28.8 mph 33.4 mph N/A Snow Light Snow
12:55 AM 28.0 °F 12.5 °F 24.6 °F 87% 29.57 in 3.0 mi WNW 28.8 mph 35.7 mph N/A Snow Light Snow
1:15 AM 27.7 °F 12.0 °F 24.8 °F 89% 29.58 in 3.0 mi WNW 28.8 mph 34.5 mph N/A Snow Light Snow
1:35 AM 27.3 °F 11.3 °F 22.8 °F 83% 29.59 in 5.0 mi WNW 29.9 mph 33.4 mph N/A   Overcast
1:55 AM 27.5 °F 12.6 °F 23.0 °F 83% 29.60 in 7.0 mi West 25.3 mph 29.9 mph N/A   Overcast
2:15 AM 27.1 °F 11.0 °F 21.2 °F 78% 29.61 in 10.0 mi WNW 29.9 mph 38.0 mph N/A   Overcast
2:35 AM 27.0 °F 13.2 °F 20.8 °F 78% 29.62 in 10.0 mi West 20.7 mph 31.1 mph N/A   Overcast
2:55 AM 27.1 °F 11.0 °F 20.7 °F 77% 29.63 in 10.0 mi West 29.9 mph 35.7 mph N/A   Overcast
3:15 AM 26.4 °F 10.1 °F 19.4 °F 75% 29.64 in 10.0 mi West 29.9 mph 35.7 mph N/A   Overcast
3:35 AM 26.4 °F 10.6 °F 20.3 °F 78% 29.64 in 10.0 mi West 27.6 mph 32.2 mph N/A   Overcast
3:55 AM 25.9 °F 9.1 °F 18.7 °F 74% 29.66 in 10.0 mi West 31.1 mph 38.0 mph N/A   Overcast
4:15 AM 24.4 °F 9.5 °F 17.4 °F 75% 29.67 in 10.0 mi West 21.9 mph - N/A   Scattered Clouds
4:35 AM 24.4 °F 8.5 °F 17.2 °F 74% 29.68 in 10.0 mi West 25.3 mph 32.2 mph N/A   Scattered Clouds
4:55 AM 23.9 °F 8.4 °F 16.7 °F 74% 29.70 in 10.0 mi West 23.0 mph 35.7 mph N/A   Clear
5:15 AM 23.9 °F 7.8 °F 16.5 °F 73% 29.71 in 10.0 mi West 25.3 mph 35.7 mph N/A   Clear
5:35 AM 23.7 °F 8.2 °F 16.3 °F 73% 29.72 in 10.0 mi West 23.0 mph 27.6 mph N/A   Clear
5:55 AM 23.5 °F 8.3 °F 16.2 °F 73% 29.71 in 10.0 mi West 21.9 mph 32.2 mph N/A   Clear
6:15 AM 23.4 °F 6.5 °F 16.5 °F 75% 29.71 in 10.0 mi West 27.6 mph 32.2 mph N/A   Clear
6:35 AM 23.0 °F 8.0 °F 16.2 °F 75% 29.72 in 10.0 mi West 20.7 mph 29.9 mph N/A   Clear
6:55 AM 23.0 °F 6.9 °F 16.5 °F 76% 29.73 in 10.0 mi West 24.2 mph 27.6 mph N/A   Clear
7:15 AM 23.0 °F 7.6 °F 16.5 °F 76% 29.74 in 10.0 mi West 21.9 mph 27.6 mph N/A   Clear
7:35 AM 23.7 °F 7.5 °F 16.5 °F 74% 29.75 in 10.0 mi West 25.3 mph 32.2 mph N/A   Clear
7:55 AM 24.1 °F 9.0 °F 16.2 °F 72% 29.76 in 10.0 mi West 21.9 mph - N/A   Clear
8:15 AM 24.8 °F 8.1 °F 15.4 °F 68% 29.76 in 10.0 mi West 28.8 mph - N/A   Clear
8:35 AM 25.7 °F 9.9 °F 15.4 °F 65% 29.77 in 10.0 mi West 26.5 mph 32.2 mph N/A   Clear
8:55 AM 26.2 °F 11.5 °F 15.1 °F 63% 29.78 in 10.0 mi West 23.0 mph 33.4 mph N/A   Clear
9:15 AM 27.0 °F 11.9 °F 15.1 °F 61% 29.78 in 10.0 mi West 25.3 mph 33.4 mph N/A   Clear
9:35 AM 28.0 °F 13.6 °F 15.3 °F 59% 29.78 in 10.0 mi West 24.2 mph 29.9 mph N/A   Clear
9:55 AM 29.1 °F 14.5 °F 16.3 °F 59% 29.79 in 10.0 mi West 26.5 mph 31.1 mph N/A   Clear
10:15 AM 30.2 °F 16.8 °F 17.1 °F 58% 29.78 in 10.0 mi West 23.0 mph 26.5 mph N/A   Clear
10:35 AM 31.5 °F 18.8 °F 18.9 °F 60% 29.78 in 10.0 mi West 21.9 mph 29.9 mph N/A   Clear
10:55 AM 32.0 °F 19.2 °F 18.7 °F 58% 29.78 in 10.0 mi West 23.0 mph 26.5 mph N/A   Clear
11:15 AM 32.4 °F 20.0 °F 20.7 °F 62% 29.78 in 10.0 mi West 21.9 mph 29.9 mph N/A   Clear
11:35 AM 32.9 °F 21.0 °F 19.8 °F 59% 29.78 in 10.0 mi West 20.7 mph 25.3 mph N/A   Clear
11:55 AM 33.8 °F 22.2 °F 20.3 °F 58% 29.78 in 10.0 mi West 20.7 mph 26.5 mph N/A   Clear
12:10 PM 34.2 °F 22.3 °F 20.7 °F 58% 29.78 in 10.0 mi West 21.9 mph 25.3 mph N/A   Clear
12:35 PM 35.6 °F 25.5 °F 22.8 °F 60% 29.77 in 10.0 mi WSW 17.3 mph - N/A   Clear
12:55 PM 36.0 °F 26.3 °F 22.8 °F 59% 29.76 in 10.0 mi WSW 16.1 mph - N/A   Clear
1:15 PM 36.5 °F 26.7 °F 23.0 °F 58% 29.76 in 10.0 mi West 17.3 mph - N/A   Scattered Clouds
1:35 PM 37.6 °F 29.1 °F 26.4 °F 64% 29.76 in 10.0 mi West 13.8 mph - N/A   Scattered Clouds
1:55 PM 38.1 °F 29.5 °F 26.8 °F 64% 29.76 in 10.0 mi West 15.0 mph 18.4 mph N/A   Mostly Cloudy
2:15 PM 37.6 °F 28.8 °F 25.5 °F 62% 29.76 in 10.0 mi West 15.0 mph - N/A   Overcast
2:35 PM 37.8 °F 30.2 °F 26.6 °F 64% 29.77 in 10.0 mi West 11.5 mph 18.4 mph N/A   Overcast
2:55 PM 37.4 °F 30.3 °F 27.3 °F 67% 29.77 in 10.0 mi West 10.4 mph - N/A   Overcast
3:15 PM 37.9 °F 30.5 °F 27.3 °F 66% 29.78 in 10.0 mi WNW 11.5 mph - N/A   Overcast
3:35 PM 37.4 °F 30.8 °F 27.1 °F 66% 29.78 in 10.0 mi WNW 9.2 mph - N/A   Mostly Cloudy
3:55 PM 37.4 °F 31.4 °F 27.7 °F 68% 29.78 in 10.0 mi WNW 8.1 mph - N/A   Mostly Cloudy
4:15 PM 36.9 °F 31.4 °F 28.8 °F 72% 29.79 in 10.0 mi WNW 6.9 mph - N/A   Overcast
4:35 PM 36.7 °F 31.2 °F 28.9 °F 74% 29.79 in 10.0 mi NW 6.9 mph - N/A   Overcast
4:50 PM 36.7 °F 31.2 °F 29.3 °F 75% 29.80 in 10.0 mi NW 6.9 mph - N/A   Mostly Cloudy
5:15 PM 35.8 °F 29.4 °F 27.7 °F 72% 29.80 in 10.0 mi NW 8.1 mph - N/A   Scattered Clouds
5:35 PM 34.9 °F 29.0 °F 26.6 °F 72% 29.80 in 10.0 mi NW 6.9 mph - N/A   Clear
5:55 PM 33.6 °F 29.4 °F 26.8 °F 76% 29.81 in 10.0 mi NW 4.6 mph - N/A   Clear
6:15 PM 33.3 °F 27.1 °F 26.6 °F 77% 29.82 in 10.0 mi NW 6.9 mph - N/A   Clear
6:35 PM 32.2 °F 26.7 °F 27.5 °F 83% 29.82 in 10.0 mi WNW 5.8 mph - N/A   Clear
6:55 PM 32.0 °F 27.5 °F 27.3 °F 83% 29.83 in 10.0 mi WNW 4.6 mph - N/A   Scattered Clouds
7:15 PM 32.0 °F 28.7 °F 26.6 °F 80% 29.84 in 10.0 mi WNW 3.5 mph - N/A   Clear
7:35 PM 32.0 °F - 26.6 °F 80% 29.84 in 10.0 mi Calm Calm - N/A   Clear
7:55 PM 30.7 °F - 26.6 °F 85% 29.84 in 10.0 mi Calm Calm - N/A   Clear
8:15 PM 30.9 °F - 27.0 °F 85% 29.85 in 10.0 mi Calm Calm - N/A   Clear
8:35 PM 30.6 °F - 27.3 °F 88% 29.85 in 10.0 mi Calm Calm - N/A   Clear
8:55 PM 30.6 °F - 27.0 °F 86% 29.86 in 10.0 mi Calm Calm - N/A   Scattered Clouds
9:15 PM 30.7 °F - 27.3 °F 87% 29.86 in 10.0 mi Calm Calm - N/A   Scattered Clouds
9:35 PM 30.0 °F - 27.0 °F 88% 29.87 in 10.0 mi Calm Calm - N/A   Clear
9:55 PM 29.8 °F - 27.5 °F 91% 29.87 in 10.0 mi Calm Calm - N/A   Scattered Clouds
10:15 PM 29.7 °F - 27.0 °F 90% 29.87 in 10.0 mi Calm Calm - N/A   Scattered Clouds
10:35 PM 30.0 °F - 26.4 °F 86% 29.87 in 10.0 mi Calm Calm - N/A   Clear
10:55 PM 30.7 °F - 26.1 °F 83% 29.87 in 10.0 mi Calm Calm - N/A   Clear
11:15 PM 30.4 °F 23.6 °F 25.7 °F 83% 29.87 in 10.0 mi West 6.9 mph - N/A   Clear
11:35 PM 29.8 °F 22.2 °F 26.2 °F 86% 29.88 in 10.0 mi West 8.1 mph - N/A   Clear
11:55 PM 29.3 °F 24.3 °F 26.4 °F 89% 29.88 in 10.0 mi West 4.6 mph - N/A   Clear